Aérodrome :
LOGIN :

S'inscrire | Disclaimer

   EN    FR    IT 

 










Légende :    VFR   VFR Marginal   IFR   IFR Intensif   IFR Très Intensif
Visi : 
Plafond : 
>= 8 km
>= 3000ft
5 à 8 km
1000 à 3000 ft
1500m à 5 km
500 à 1000 ft
800 à 1500m
200 à 500 ft
< 800m
< 200 ft
Symboles :   Orages  Brouillard  Fortes neiges  Fortes précipitations  Vent > 20 kt
SIGMETs :   Divers  Orages  Givrage  Turbulence  Onde Orograph.  Cendres Volcan.






- Altitude de l'aérodrome : 909 ft
- Code IATA : KSF


EDVK - Kassel Calden

DERNIER METAR :
  • 240520Z 20012KT 7000 VCSH BKN040 16/13 Q1002

METARs EXPIRÉS :
  • 240450Z 19012KT CAVOK 16/13 Q1002
  • 240420Z 19009KT 150V220 CAVOK 16/13 Q1001

TAF TAF EDVK
Valide du 24 à 06h jusqu'au 24 à 15h UTC


240500Z 2406/2415 22011KT 9999 SCT025



MET'MAP, la Météo Aéronautique d'un coup d'oeil ! - Copyright ORBIFLY Décembre 2007 - Disclaimer

ORBIFLY MET'MAP TEAM :

Programmation & Développement : Alexandra Zaïnal
Sur une idée originale de : Baudouin d'Aumeries
Assistance à la programmation : Marc-Olivier Méhu
Soutien technique & logistique : Manuel Goepfert

Contact : metmap@orbifly.com




SOURCES & CREDITS :

   NOAA